When you browse on this site, cookies collect data to enhance your experience and personalize the content and advertising you see.
Visit our Privacy Policy to learn more. By continuing to use the site, you agree to this use of cookies and data.
  • In Italy
  • List of Countries
  • For 7 days
  • Water Temperature
  • Satellite Maps
  • Weather Map
  • Weather Widgets
  • user-avatar
    Login

    Hourly Weather Wavre

    Today, 13 December, Thursday

    Time Temperature Precipitation Wind Pressure Humidity
    00:00 -1°C° 0 mm 3 mps 760 mmHg 88%
    01:00 -1°C° 0 mm 3 mps 760 mmHg 88%
    02:00 -1°C° 0 mm 3 mps 760 mmHg 89%
    03:00 -1°C° 0 mm 3 mps 759 mmHg 89%
    04:00 -1°C° 0 mm 3 mps 759 mmHg 88%
    05:00 -1°C° 0 mm 3 mps 759 mmHg 87%
    06:00 -2°C° 0 mm 4 mps 759 mmHg 86%
    07:00 -2°C° 0 mm 4 mps 758 mmHg 83%
    08:00 -2°C° 0 mm 4 mps 758 mmHg 80%
    09:00 -1°C° 0 mm 5 mps 758 mmHg 77%
    10:00 0°C° 0 mm 5 mps 758 mmHg 71%
    11:00 0°C° 0 mm 5 mps 758 mmHg 65%
    12:00 +1°C° 0 mm 6 mps 758 mmHg 59%
    13:00 +1°C° 0 mm 5 mps 758 mmHg 60%
    14:00 0°C° 0 mm 5 mps 758 mmHg 61%
    15:00 0°C° 0 mm 4 mps 757 mmHg 62%
    16:00 -1°C° 0 mm 4 mps 758 mmHg 65%
    17:00 -1°C° 0 mm 4 mps 758 mmHg 68%
    18:00 -2°C° 0 mm 4 mps 758 mmHg 71%
    19:00 -2°C° 0 mm 4 mps 758 mmHg 72%
    20:00 -2°C° 0 mm 4 mps 759 mmHg 73%
    21:00 -3°C° 0 mm 4 mps 759 mmHg 74%
    22:00 -2°C° 0 mm 3 mps 759 mmHg 76%
    23:00 -2°C° 0 mm 3 mps 759 mmHg 78%

    Tomorrow, 14 December, Friday

    Time Temperature Precipitation Wind Pressure Humidity
    00:00 -2°C° 0 mm 3 mps 759 mmHg 79%
    01:00 -2°C° 0 mm 3 mps 759 mmHg 81%
    02:00 -2°C° 0 mm 3 mps 759 mmHg 82%
    03:00 -2°C° 0 mm 3 mps 760 mmHg 83%
    04:00 -4°C° 0 mm 3 mps 760 mmHg 83%
    05:00 -4°C° 0 mm 3 mps 760 mmHg 84%
    06:00 -4°C° 0 mm 3 mps 760 mmHg 84%
    07:00 -2°C° 0 mm 3 mps 760 mmHg 82%
    08:00 -3°C° 0 mm 4 mps 760 mmHg 81%
    09:00 -3°C° 0 mm 4 mps 760 mmHg 79%
    10:00 -2°C° 0 mm 4 mps 760 mmHg 75%
    11:00 0°C° 0 mm 3 mps 761 mmHg 70%
    12:00 +1°C° 0 mm 3 mps 761 mmHg 66%
    13:00 0°C° 0 mm 3 mps 761 mmHg 68%
    14:00 0°C° 0 mm 3 mps 761 mmHg 70%
    15:00 +1°C° 0 mm 2 mps 761 mmHg 73%
    16:00 -1°C° 0 mm 2 mps 761 mmHg 76%
    17:00 -2°C° 0 mm 2 mps 761 mmHg 80%
    18:00 -2°C° 0 mm 2 mps 762 mmHg 83%
    19:00 -2°C° 0 mm 2 mps 762 mmHg 83%
    20:00 -3°C° 0 mm 2 mps 762 mmHg 83%
    21:00 -3°C° 0 mm 2 mps 762 mmHg 83%
    22:00 -3°C° 0 mm 2 mps 762 mmHg 82%
    23:00 -1°C° 0 mm 1 mps 762 mmHg 82%

    Day after tomorrow, 15 December, Saturday

    Time Temperature Precipitation Wind Pressure Humidity
    00:00 -1°C° 0 mm 1 mps 762 mmHg 81%
    01:00 -1°C° 0 mm 1 mps 762 mmHg 81%
    02:00 -1°C° 0 mm 1 mps 762 mmHg 81%
    03:00 -3°C° 0 mm 2 mps 762 mmHg 80%
    04:00 -3°C° 0 mm 2 mps 762 mmHg 80%
    05:00 -3°C° 0 mm 2 mps 761 mmHg 79%
    06:00 -3°C° 0 mm 2 mps 761 mmHg 78%
    07:00 -3°C° 0 mm 2 mps 761 mmHg 76%
    08:00 -2°C° 0 mm 3 mps 761 mmHg 73%
    09:00 -2°C° 0 mm 3 mps 761 mmHg 70%
    10:00 -2°C° 0 mm 4 mps 760 mmHg 66%
    11:00 -1°C° 0 mm 4 mps 760 mmHg 62%
    12:00 0°C° 0 mm 4 mps 759 mmHg 58%
    13:00 0°C° 0 mm 4 mps 759 mmHg 58%
    14:00 0°C° 0 mm 4 mps 758 mmHg 59%
    15:00 -1°C° 0 mm 4 mps 758 mmHg 60%
    16:00 0°C° 0 mm 5 mps 757 mmHg 60%
    17:00 -1°C° 0 mm 6 mps 756 mmHg 60%
    18:00 -1°C° 0 mm 6 mps 756 mmHg 60%
    19:00 -1°C° 0.1 mm 7 mps 755 mmHg 59%
    20:00 -1°C° 0.1 mm 7 mps 754 mmHg 58%
    21:00 0°C° 0.1 mm 8 mps 753 mmHg 58%
    22:00 0°C° 0.7 mm 8 mps 752 mmHg 66%
    23:00 0°C° 0.7 mm 9 mps 751 mmHg 74%

    16 December, Sunday

    Time Temperature Precipitation Wind Pressure Humidity
    00:00 0°C° 0.7 mm 9 mps 750 mmHg 82%
    01:00 0°C° 1.3 mm 9 mps 750 mmHg 84%
    02:00 +1°C° 1.3 mm 8 mps 749 mmHg 85%
    03:00 +1°C° 1.3 mm 8 mps 748 mmHg 87%
    04:00 +2°C° 0.3 mm 7 mps 748 mmHg 89%
    05:00 +3°C° 0.3 mm 6 mps 748 mmHg 91%
    06:00 +3°C° 0.3 mm 5 mps 748 mmHg 93%
    07:00 +4°C° 0 mm 4 mps 749 mmHg 93%
    08:00 +4°C° 0 mm 4 mps 749 mmHg 93%
    09:00 +4°C° 0 mm 4 mps 750 mmHg 94%
    10:00 +4°C° 0.3 mm 4 mps 750 mmHg 93%
    11:00 +5°C° 0.3 mm 4 mps 751 mmHg 93%
    12:00 +5°C° 0.3 mm 4 mps 751 mmHg 92%
    13:00 +5°C° 0.6 mm 4 mps 751 mmHg 93%
    14:00 +4°C° 0.6 mm 3 mps 752 mmHg 94%
    15:00 +4°C° 0.6 mm 3 mps 752 mmHg 96%
    16:00 +3°C° 0 mm 3 mps 753 mmHg 95%
    17:00 +3°C° 0 mm 3 mps 753 mmHg 95%
    18:00 +3°C° 0 mm 3 mps 754 mmHg 95%
    19:00 +2°C° 0 mm 3 mps 754 mmHg 95%
    20:00 +2°C° 0 mm 3 mps 754 mmHg 94%
    21:00 +2°C° 0 mm 3 mps 754 mmHg 94%
    22:00 +2°C° 0 mm 3 mps 754 mmHg 93%
    23:00 +2°C° 0 mm 3 mps 754 mmHg 93%

    17 December, Monday

    Time Temperature Precipitation Wind Pressure Humidity
    00:00 +2°C° 0 mm 3 mps 754 mmHg 93%
    01:00 +2°C° 0.3 mm 3 mps 753 mmHg 93%
    02:00 +3°C° 0.3 mm 2 mps 753 mmHg 93%
    03:00 +3°C° 0.3 mm 2 mps 753 mmHg 93%
    04:00 +4°C° 0.4 mm 2 mps 754 mmHg 94%
    05:00 +4°C° 0.4 mm 2 mps 754 mmHg 94%
    06:00 +4°C° 0.4 mm 2 mps 754 mmHg 95%
    07:00 +4°C° 0.4 mm 2 mps 755 mmHg 95%
    08:00 +4°C° 0.4 mm 2 mps 756 mmHg 95%
    09:00 +3°C° 0.4 mm 3 mps 756 mmHg 95%
    10:00 +4°C° 0.1 mm 3 mps 757 mmHg 92%
    11:00 +5°C° 0.1 mm 3 mps 757 mmHg 89%
    12:00 +6°C° 0.1 mm 4 mps 758 mmHg 86%
    13:00 +5°C° 0 mm 3 mps 758 mmHg 87%
    14:00 +5°C° 0 mm 3 mps 759 mmHg 88%
    15:00 +6°C° 0 mm 2 mps 759 mmHg 89%
    16:00 +5°C° 0 mm 2 mps 760 mmHg 90%
    17:00 +5°C° 0 mm 2 mps 760 mmHg 92%
    18:00 +4°C° 0 mm 2 mps 761 mmHg 94%
    19:00 +3°C° 0 mm 3 mps 761 mmHg 94%
    20:00 +3°C° 0 mm 3 mps 761 mmHg 95%
    21:00 +3°C° 0 mm 3 mps 761 mmHg 95%
    22:00 +2°C° 0 mm 3 mps 761 mmHg 95%
    23:00 +2°C° 0 mm 3 mps 761 mmHg 95%

    18 December, Tuesday

    Time Temperature Precipitation Wind Pressure Humidity
    00:00 +2°C° 0 mm 3 mps 761 mmHg 94%
    01:00 +2°C° 0 mm 3 mps 761 mmHg 94%
    02:00 +1°C° 0 mm 4 mps 761 mmHg 94%
    03:00 +1°C° 0 mm 4 mps 760 mmHg 94%
    04:00 +3°C° 0 mm 4 mps 760 mmHg 93%
    05:00 +3°C° 0 mm 4 mps 760 mmHg 93%
    06:00 +2°C° 0 mm 5 mps 759 mmHg 93%
    07:00 +3°C° 0 mm 5 mps 759 mmHg 92%
    08:00 +3°C° 0 mm 5 mps 759 mmHg 91%
    09:00 +5°C° 0 mm 5 mps 758 mmHg 90%
    10:00 +4°C° 0 mm 6 mps 757 mmHg 86%
    11:00 +5°C° 0 mm 6 mps 756 mmHg 82%
    12:00 +7°C° 0 mm 6 mps 755 mmHg 78%
    13:00 +5°C° 0 mm 6 mps 755 mmHg 76%
    14:00 +5°C° 0 mm 7 mps 754 mmHg 74%
    15:00 +5°C° 0 mm 7 mps 753 mmHg 73%
    16:00 +5°C° 0 mm 7 mps 752 mmHg 71%
    17:00 +5°C° 0 mm 7 mps 752 mmHg 69%
    18:00 +4°C° 0 mm 8 mps 751 mmHg 67%
    19:00 +4°C° 0.4 mm 8 mps 750 mmHg 70%
    20:00 +4°C° 0.4 mm 8 mps 750 mmHg 72%
    21:00 +4°C° 0.4 mm 8 mps 749 mmHg 75%
    22:00 +5°C° 0.4 mm 8 mps 749 mmHg 78%
    23:00 +5°C° 0.4 mm 7 mps 749 mmHg 82%
    Show more